Starlink 11454

operational
NORAD ID: 62059 Int'l Des: 2024-217 Owner: SPXS Country: US Constellation: starlink
LEOCIRCULAR

About Starlink 11454

Description loading...

Live Position

Loading 3D Globe...

Upcoming Passes

Altitude History

Altitude vs Time

uPlot chart will show altitude changes over time

Two-Line Element Set

1 62059U 24217C 25258.61122161 .00151473 00000-0 12291-2 0 9998
2 62059 53.1565 214.4657 0001277 79.9586 280.1576 15.69775349 47678
Epoch: Sep 15, 2025 • Age: 8 hours

Current Status

Altitude 365.0 km
Velocity 7.70 km/s
Sub-Earth Point 53.27°N, 35.74°W
Launch Date Nov 24, 2024
Age 0.8 years
Type internet

Technical Details

Classification Payload
Mass 960.00 kg
Dry Mass 910.00 kg
Total Mass 960.00 kg
Length 0.30 m
Diameter 4.10 m
Span 29.00 m
Shape Box + pan
Manufacturer SPXS
Bus Type Starlink V2MD
Phase Status In Orbit
Owner/State SPXS/US

Large Constellations

Loading constellations...